| time (UTC) | temp C | wind direction | speed KPH | gust KPH | rain 1hr cm | rain 24hr cm | rain mn cm | humidity % | barometer mb |
| 20260504110211 | 17 | 109 | 1.6 | 4.8 | 0.00 | 0.00 | 0.00 | 89 | 1013.3 |
| 20260504100543 | 16 | 108 | 1.6 | 4.8 | 0.00 | 0.00 | 0.00 | 90 | 1013.7 |
| 20260504100238 | 16 | 109 | 0.0 | 4.8 | 0.00 | 0.00 | 0.00 | 90 | 1013.8 |
| 20260504081728 | 17 | 109 | 1.6 | 4.8 | 0.00 | 0.00 | 0.00 | 88 | 1014.5 |
| 20260504081228 | 17 | 109 | 3.2 | 4.8 | 0.00 | 0.00 | 0.00 | 88 | 1014.3 |
| 20260504080655 | 17 | 109 | 1.6 | 4.8 | 0.00 | 0.00 | 0.00 | 87 | 1014.2 |
| 20260504080412 | 17 | 109 | 0.0 | 4.8 | 0.00 | 0.00 | 0.00 | 87 | 1014.5 |
| 20260504060204 | 18 | 108 | 4.8 | 11.3 | 0.00 | 0.00 | 0.00 | 82 | 1016.1 |
| 20260504050425 | 18 | 107 | 6.4 | 12.9 | 0.00 | 0.00 | 0.00 | 82 | 1016.6 |
| 20260504050146 | 18 | 107 | 4.8 | 8.0 | 0.00 | 0.00 | 0.00 | 81 | 1016.9 |
| 20260504045420 | 18 | 109 | 3.2 | 8.0 | 0.00 | 0.00 | 0.00 | 81 | 1016.9 |
| 20260504044858 | 18 | 109 | 3.2 | 8.0 | 0.00 | 0.00 | 0.00 | 81 | 1017.0 |
| 20260504044400 | 18 | 109 | 3.2 | 6.4 | 0.00 | 0.00 | 0.00 | 81 | 1017.0 |
| 20260504043840 | 18 | 109 | 4.8 | 8.0 | 0.00 | 0.00 | 0.00 | 81 | 1017.1 |
| 20260504043334 | 18 | 109 | 4.8 | 8.0 | 0.00 | 0.00 | 0.00 | 81 | 1017.0 |
| 20260504042759 | 18 | 108 | 3.2 | 11.3 | 0.00 | 0.00 | 0.00 | 81 | 1017.1 |
| 20260504042449 | 18 | 108 | 4.8 | 11.3 | 0.00 | 0.00 | 0.00 | 81 | 1017.0 |
| 20260504041923 | 18 | 108 | 4.8 | 11.3 | 0.00 | 0.00 | 0.00 | 81 | 1017.0 |
| 20260504041156 | 19 | 108 | 4.8 | 8.0 | 0.00 | 0.00 | 0.00 | 80 | 1016.9 |
| 20260504040127 | 19 | 108 | 4.8 | 8.0 | 0.00 | 0.00 | 0.00 | 80 | 1016.9 |
| 20260504035825 | 19 | 108 | 4.8 | 11.3 | 0.00 | 0.00 | 0.00 | 80 | 1017.0 |
| 20260504035058 | 19 | 108 | 4.8 | 11.3 | 0.00 | 0.00 | 0.00 | 79 | 1017.1 |
| 20260504034522 | 19 | 108 | 4.8 | 8.0 | 0.00 | 0.00 | 0.00 | 78 | 1017.0 |
| 20260504034004 | 19 | 108 | 4.8 | 11.3 | 0.00 | 0.00 | 0.00 | 78 | 1017.0 |
| 20260504033504 | 19 | 108 | 6.4 | 11.3 | 0.00 | 0.00 | 0.00 | 78 | 1016.9 |
| 20260504033203 | 20 | 108 | 4.8 | 8.0 | 0.00 | 0.00 | 0.00 | 77 | 1017.0 |
| 20260504032434 | 20 | 108 | 4.8 | 8.0 | 0.00 | 0.00 | 0.00 | 77 | 1016.9 |
| 20260504032145 | 20 | 108 | 3.2 | 6.4 | 0.00 | 0.00 | 0.00 | 77 | 1017.1 |
| 20260504031419 | 20 | 120 | 4.8 | 8.0 | 0.00 | 0.00 | 0.00 | 76 | 1017.1 |
| 20260504031130 | 20 | 120 | 4.8 | 12.9 | 0.00 | 0.00 | 0.00 | 76 | 1017.0 |
| 20260504030404 | 20 | 120 | 6.4 | 12.9 | 0.00 | 0.00 | 0.00 | 76 | 1017.0 |
| 20260504025838 | 20 | 117 | 6.4 | 14.5 | 0.00 | 0.00 | 0.00 | 75 | 1017.0 |
| 20260504025338 | 20 | 116 | 6.4 | 14.5 | 0.00 | 0.00 | 0.00 | 75 | 1016.9 |
| 20260504024801 | 20 | 113 | 6.4 | 12.9 | 0.00 | 0.00 | 0.00 | 74 | 1017.0 |
| 20260504024233 | 20 | 111 | 6.4 | 12.9 | 0.00 | 0.00 | 0.00 | 74 | 1016.8 |
| 20260504023206 | 20 | 120 | 6.4 | 11.3 | 0.00 | 0.00 | 0.00 | 72 | 1016.7 |
| 20260504022701 | 20 | 116 | 6.4 | 16.1 | 0.00 | 0.00 | 0.00 | 72 | 1016.6 |
| 20260504022143 | 20 | 116 | 8.0 | 16.1 | 0.00 | 0.00 | 0.00 | 71 | 1016.6 |
| 20260504021836 | 20 | 119 | 8.0 | 14.5 | 0.00 | 0.00 | 0.00 | 71 | 1016.5 |
| 20260504021112 | 20 | 119 | 8.0 | 14.5 | 0.00 | 0.00 | 0.00 | 71 | 1016.4 |
| 20260504020546 | 21 | 114 | 6.4 | 14.5 | 0.00 | 0.00 | 0.00 | 70 | 1016.5 |
| 20260504020043 | 21 | 125 | 6.4 | 12.9 | 0.00 | 0.00 | 0.00 | 70 | 1016.6 |
| 20260504015543 | 21 | 125 | 6.4 | 12.9 | 0.00 | 0.00 | 0.00 | 69 | 1016.6 |
| 20260504015044 | 21 | 132 | 6.4 | 12.9 | 0.00 | 0.00 | 0.00 | 69 | 1016.6 |
| 20260504014523 | 21 | 132 | 8.0 | 14.5 | 0.00 | 0.00 | 0.00 | 68 | 1016.6 |
| 20260504014239 | 21 | 134 | 8.0 | 14.5 | 0.00 | 0.00 | 0.00 | 67 | 1016.4 |
| 20260504013451 | 21 | 119 | 8.0 | 14.5 | 0.00 | 0.00 | 0.00 | 67 | 1016.4 |
| 20260504012949 | 21 | 142 | 8.0 | 14.5 | 0.00 | 0.00 | 0.00 | 67 | 1016.6 |
| 20260504012421 | 21 | 121 | 8.0 | 14.5 | 0.00 | 0.00 | 0.00 | 66 | 1016.6 |
| 20260504011919 | 21 | 112 | 8.0 | 16.1 | 0.00 | 0.00 | 0.00 | 65 | 1016.3 |
| 20260504011353 | 22 | 136 | 9.7 | 16.1 | 0.00 | 0.00 | 0.00 | 65 | 1016.5 |
| 20260504010845 | 22 | 101 | 8.0 | 16.1 | 0.00 | 0.00 | 0.00 | 64 | 1016.3 |
| 20260504010319 | 22 | 121 | 8.0 | 16.1 | 0.00 | 0.00 | 0.00 | 63 | 1016.5 |
| 20260504005509 | 22 | 119 | 9.7 | 16.1 | 0.00 | 0.00 | 0.00 | 62 | 1016.7 |
| 20260504004724 | 22 | 131 | 9.7 | 16.1 | 0.00 | 0.00 | 0.00 | 62 | 1016.6 |
| 20260504004212 | 22 | 126 | 9.7 | 19.3 | 0.00 | 0.00 | 0.00 | 62 | 1016.5 |
| 20260504003910 | 23 | 115 | 11.3 | 19.3 | 0.00 | 0.00 | 0.00 | 61 | 1016.6 |
| 20260504003149 | 23 | 137 | 11.3 | 20.9 | 0.00 | 0.00 | 0.00 | 60 | 1016.6 |
| 20260504002618 | 23 | 135 | 12.9 | 20.9 | 0.00 | 0.00 | 0.00 | 59 | 1016.6 |
| 20260504002309 | 23 | 118 | 11.3 | 22.5 | 0.00 | 0.00 | 0.00 | 59 | 1016.7 |
| 20260504000730 | 23 | 120 | 14.5 | 25.7 | 0.00 | 0.00 | 0.00 | 58 | 1016.5 |
| 20260504000004 | 23 | 96 | 14.5 | 24.1 | 0.00 | 0.00 | 0.00 | 58 | 1016.7 |
| 20260503235727 | 23 | 116 | 14.5 | 25.7 | 0.00 | 0.00 | 0.00 | 57 | 1016.7 |
| 20260503235221 | 23 | 139 | 14.5 | 25.7 | 0.00 | 0.00 | 0.00 | 57 | 1016.7 |
| 20260503234429 | 23 | 141 | 14.5 | 27.4 | 0.00 | 0.00 | 0.00 | 57 | 1016.7 |
| 20260503233902 | 24 | 142 | 14.5 | 27.4 | 0.00 | 0.00 | 0.00 | 57 | 1016.6 |
| 20260503233355 | 24 | 98 | 14.5 | 27.4 | 0.00 | 0.00 | 0.00 | 57 | 1016.5 |
| 20260503232855 | 24 | 132 | 16.1 | 27.4 | 0.00 | 0.00 | 0.00 | 57 | 1016.6 |
| 20260503232354 | 24 | 142 | 16.1 | 25.7 | 0.00 | 0.00 | 0.00 | 56 | 1016.7 |
| 20260503231826 | 24 | 92 | 16.1 | 25.7 | 0.00 | 0.00 | 0.00 | 57 | 1016.6 |
| 20260503231320 | 24 | 142 | 16.1 | 27.4 | 0.00 | 0.00 | 0.00 | 56 | 1016.6 |
| 20260503230822 | 25 | 138 | 14.5 | 27.4 | 0.00 | 0.00 | 0.00 | 56 | 1016.8 |
| 20260503230317 | 25 | 122 | 14.5 | 25.7 | 0.00 | 0.00 | 0.00 | 57 | 1016.8 |
| 20260503225743 | 25 | 90 | 14.5 | 25.7 | 0.00 | 0.00 | 0.00 | 56 | 1016.8 |
| 20260503225445 | 25 | 106 | 14.5 | 25.7 | 0.00 | 0.00 | 0.00 | 55 | 1016.8 |
| 20260503224707 | 25 | 136 | 12.9 | 35.4 | 0.00 | 0.00 | 0.00 | 56 | 1016.8 |
| 20260503224159 | 25 | 128 | 14.5 | 35.4 | 0.00 | 0.00 | 0.00 | 56 | 1016.8 |
| 20260503223658 | 25 | 126 | 16.1 | 30.6 | 0.00 | 0.00 | 0.00 | 57 | 1016.8 |
| 20260503223128 | 25 | 113 | 17.7 | 30.6 | 0.00 | 0.00 | 0.00 | 56 | 1017.1 |
| 20260503222602 | 25 | 92 | 14.5 | 27.4 | 0.00 | 0.00 | 0.00 | 57 | 1016.9 |
| 20260503222317 | 25 | 113 | 14.5 | 24.1 | 0.00 | 0.00 | 0.00 | 57 | 1016.9 |
| 20260503221533 | 25 | 137 | 14.5 | 24.1 | 0.00 | 0.00 | 0.00 | 56 | 1016.9 |
| 20260503221025 | 25 | 105 | 14.5 | 24.1 | 0.00 | 0.00 | 0.00 | 56 | 1016.9 |
| 20260503220728 | 25 | 139 | 16.1 | 24.1 | 0.00 | 0.00 | 0.00 | 56 | 1017.1 |
| 20260503215955 | 25 | 140 | 16.1 | 27.4 | 0.00 | 0.00 | 0.00 | 57 | 1017.2 |
| 20260503215430 | 25 | 95 | 16.1 | 27.4 | 0.00 | 0.00 | 0.00 | 57 | 1017.3 |
| 20260503215130 | 26 | 92 | 16.1 | 30.6 | 0.00 | 0.00 | 0.00 | 56 | 1017.1 |
| 20260503214353 | 26 | 134 | 16.1 | 30.6 | 0.00 | 0.00 | 0.00 | 55 | 1017.1 |
| 20260503213834 | 26 | 138 | 16.1 | 25.7 | 0.00 | 0.00 | 0.00 | 54 | 1017.3 |
| 20260503213549 | 26 | 115 | 16.1 | 35.4 | 0.00 | 0.00 | 0.00 | 54 | 1017.4 |
| 20260503213030 | 26 | 144 | 17.7 | 35.4 | 0.00 | 0.00 | 0.00 | 54 | 1017.5 |
| 20260503212527 | 26 | 165 | 17.7 | 37.0 | 0.00 | 0.00 | 0.00 | 55 | 1017.5 |
| 20260503211230 | 26 | 142 | 11.3 | 25.7 | 0.00 | 0.00 | 0.00 | 51 | 1017.8 |
| 20260503210702 | 26 | 101 | 11.3 | 22.5 | 0.00 | 0.00 | 0.00 | 52 | 1017.7 |
| 20260503210157 | 26 | 135 | 12.9 | 33.8 | 0.00 | 0.00 | 0.00 | 51 | 1017.8 |
| 20260503205623 | 26 | 138 | 12.9 | 33.8 | 0.00 | 0.00 | 0.00 | 52 | 1017.8 |
| 20260503205058 | 26 | 126 | 9.7 | 19.3 | 0.00 | 0.00 | 0.00 | 49 | 1018.0 |
| 20260503204758 | 26 | 138 | 9.7 | 19.3 | 0.00 | 0.00 | 0.00 | 49 | 1018.0 |
| 20260503204255 | 26 | 173 | 8.0 | 24.1 | 0.00 | 0.00 | 0.00 | 48 | 1018.1 |
| 20260503203509 | 26 | 150 | 9.7 | 24.1 | 0.00 | 0.00 | 0.00 | 47 | 1018.1 |
| 20260503203009 | 26 | 123 | 12.9 | 25.7 | 0.00 | 0.00 | 0.00 | 46 | 1018.2 |
| 20260503202448 | 26 | 107 | 9.7 | 25.7 | 0.00 | 0.00 | 0.00 | 48 | 1018.3 |
| 20260503201939 | 26 | 159 | 11.3 | 22.5 | 0.00 | 0.00 | 0.00 | 47 | 1018.4 |
| 20260503200844 | 26 | 180 | 11.3 | 22.5 | 0.00 | 0.00 | 0.00 | 45 | 1018.6 |
| 20260503200609 | 27 | 90 | 11.3 | 22.5 | 0.00 | 0.00 | 0.00 | 44 | 1018.6 |
| 20260503195818 | 27 | 113 | 9.7 | 17.7 | 0.00 | 0.00 | 0.00 | 42 | 1018.7 |
| 20260503195316 | 27 | 65 | 11.3 | 20.9 | 0.00 | 0.00 | 0.00 | 41 | 1018.8 |
| 20260503194804 | 26 | 84 | 9.7 | 20.9 | 0.00 | 0.00 | 0.00 | 42 | 1018.9 |
| 20260503194255 | 26 | 103 | 8.0 | 19.3 | 0.00 | 0.00 | 0.00 | 42 | 1019.0 |
| 20260503193743 | 26 | 70 | 8.0 | 17.7 | 0.00 | 0.00 | 0.00 | 42 | 1019.2 |
| 20260503193518 | 26 | 36 | 9.7 | 17.7 | 0.00 | 0.00 | 0.00 | 43 | 1019.2 |
| 20260503192724 | 26 | 94 | 11.3 | 27.4 | 0.00 | 0.00 | 0.00 | 42 | 1019.2 |
| 20260503192222 | 26 | 144 | 11.3 | 27.4 | 0.00 | 0.00 | 0.00 | 43 | 1019.3 |
| 20260503191716 | 26 | 78 | 11.3 | 19.3 | 0.00 | 0.00 | 0.00 | 42 | 1019.4 |
| 20260503191213 | 26 | 96 | 9.7 | 17.7 | 0.00 | 0.00 | 0.00 | 45 | 1019.5 |
| 20260503190650 | 26 | 110 | 9.7 | 17.7 | 0.00 | 0.00 | 0.00 | 44 | 1019.5 |
| 20260503190146 | 27 | 67 | 8.0 | 20.9 | 0.00 | 0.00 | 0.00 | 43 | 1019.6 |
| 20260503185904 | 27 | 88 | 8.0 | 20.9 | 0.00 | 0.00 | 0.00 | 44 | 1019.7 |
| 20260503185126 | 26 | 90 | 8.0 | 22.5 | 0.00 | 0.00 | 0.00 | 45 | 1019.7 |
| 20260503184604 | 26 | 111 | 8.0 | 22.5 | 0.00 | 0.00 | 0.00 | 46 | 1019.7 |
| 20260503184056 | 26 | 99 | 9.7 | 22.5 | 0.00 | 0.00 | 0.00 | 47 | 1019.8 |
| 20260503183529 | 26 | 136 | 9.7 | 22.5 | 0.00 | 0.00 | 0.00 | 48 | 1020.0 |
| 20260503183030 | 25 | 109 | 9.7 | 24.1 | 0.00 | 0.00 | 0.00 | 47 | 1020.0 |
| 20260503182501 | 25 | 92 | 11.3 | 24.1 | 0.00 | 0.00 | 0.00 | 47 | 1020.1 |
| 20260503181941 | 25 | 123 | 8.0 | 20.9 | 0.00 | 0.00 | 0.00 | 49 | 1020.2 |
| 20260503181429 | 25 | 200 | 8.0 | 17.7 | 0.00 | 0.00 | 0.00 | 51 | 1020.3 |
| 20260503180932 | 25 | 145 | 9.7 | 16.1 | 0.00 | 0.00 | 0.00 | 49 | 1020.5 |
| 20260503180419 | 25 | 171 | 8.0 | 22.5 | 0.00 | 0.00 | 0.00 | 49 | 1020.6 |
| 20260503175921 | 26 | 101 | 6.4 | 22.5 | 0.00 | 0.00 | 0.00 | 48 | 1020.7 |
| 20260503175406 | 25 | 67 | 8.0 | 17.7 | 0.00 | 0.00 | 0.00 | 48 | 1020.7 |
| 20260503174907 | 25 | 99 | 11.3 | 24.1 | 0.00 | 0.00 | 0.00 | 47 | 1020.8 |
| 20260503173838 | 25 | 115 | 8.0 | 14.5 | 0.00 | 0.00 | 0.00 | 50 | 1020.9 |
| 20260503173312 | 25 | 200 | 9.7 | 17.7 | 0.00 | 0.00 | 0.00 | 51 | 1021.1 |
| 20260503172807 | 25 | 180 | 9.7 | 20.9 | 0.00 | 0.00 | 0.00 | 49 | 1021.1 |
| 20260503172258 | 25 | 182 | 9.7 | 20.9 | 0.00 | 0.00 | 0.00 | 49 | 1021.3 |
| 20260503171737 | 25 | 137 | 8.0 | 17.7 | 0.00 | 0.00 | 0.00 | 46 | 1021.3 |
| 20260503171228 | 25 | 94 | 6.4 | 16.1 | 0.00 | 0.00 | 0.00 | 47 | 1021.3 |
| 20260503170948 | 25 | 126 | 6.4 | 16.1 | 0.00 | 0.00 | 0.00 | 50 | 1021.3 |
| 20260503170223 | 25 | 159 | 9.7 | 17.7 | 0.00 | 0.00 | 0.00 | 52 | 1021.4 |
| 20260503150719 | 23 | 63 | 4.8 | 12.9 | 0.00 | 0.00 | 0.00 | 62 | 1021.6 |
| 20260503150213 | 23 | 61 | 4.8 | 11.3 | 0.00 | 0.00 | 0.00 | 63 | 1021.5 |
| 20260503131223 | 16 | 23 | 1.6 | 4.8 | 0.00 | 0.00 | 0.00 | 89 | 1021.0 |
| 20260503130704 | 16 | 23 | 1.6 | 4.8 | 0.00 | 0.00 | 0.00 | 91 | 1020.9 |
| 20260503130154 | 16 | 23 | 1.6 | 4.8 | 0.00 | 0.00 | 0.00 | 91 | 1021.0 |